Overview Statistics Trail Chart Weather Telemetry Raw packets
 

This is the latest recevied weather packets stored in our database for station/object N9BLE. If no packets are shown the sender has not sent any weather packets the latest 10 day(s).

<< 10 11 12 13 14 15 16 >>
Time Temp. Humidity Pressure Rain* Wind** Luminosity Snow
1777965705 10.56° C 59% 1007.9 hPa 0 mm - 0 W/m² -
1777965400 10.56° C 58% 1007.9 hPa 0 mm - 0 W/m² -
1777965098 10.56° C 57% 1008 hPa 0 mm - 0 W/m² -
1777964795 10.56° C 58% 1007.8 hPa 0 mm - 0 W/m² -
1777964492 10.56° C 55% 1007.5 hPa 0 mm - 0 W/m² -
1777964188 10.56° C 57% 1007.3 hPa 0 mm - 0 W/m² -
1777963884 10.56° C 56% 1007.1 hPa 0 mm - 0 W/m² -
1777963581 11.11° C 56% 1007.1 hPa 0 mm - 0 W/m² -
1777963280 11.11° C 55% 1007.3 hPa 0 mm - 0 W/m² -
1777962977 11.67° C 54% 1007 hPa 0 mm - 0 W/m² -
1777962673 11.67° C 55% 1006.8 hPa 0 mm - 0 W/m² -
1777962369 11.67° C 55% 1007 hPa 0 mm - 0 W/m² -
1777962067 11.67° C 55% 1007 hPa 0 mm - 0 W/m² -
1777961764 11.67° C 54% 1006.9 hPa 0 mm - 0 W/m² -
1777961462 11.67° C 54% 1007.1 hPa 0 mm - 0 W/m² -
1777961159 11.67° C 55% 1006.9 hPa 0 mm - 0 W/m² -
1777960856 11.67° C 54% 1007.1 hPa 0 mm - 0 W/m² -
1777960551 12.22° C 53% 1006.9 hPa 0 mm - 0 W/m² -
1777960248 12.22° C 52% 1006.7 hPa 0 mm - 0 W/m² -
1777959945 12.78° C 50% 1006.9 hPa 0 mm - 0 W/m² -
1777959643 12.78° C 50% 1006.8 hPa 0 mm - 0 W/m² -
1777959340 12.78° C 49% 1006.8 hPa 0 mm - 0 W/m² -
1777959037 13.33° C 48% 1006.5 hPa 0 mm - 0 W/m² -
1777958733 13.33° C 48% 1006.6 hPa 0 mm - 0 W/m² -
1777958431 13.33° C 49% 1006.5 hPa 0 mm - 0 W/m² -

* Rain latest hour (hover to see other rain measurements)
** Current wind speed in m/s (hover to see current wind gust speed)